Location: *
(34.6780°N, 135.8310°E)
Time: 23:21:21
(UTC+00:00)

Cosmos 292 Rocket - Pass Details

Date: 18 October 2019
Orbit: 673 x 695 km, 74.0° (Epoch: 17 November)

Event Time Altitude Azimuth Distance (km) Brightness Sun altitude
Exits shadow 19:17:02 - 345° (NNW) 2,507 6.6 -22.9°
Reaches altitude 10° 19:17:59 10° 346° (NNW) 2,130 6.2 -22.7°
Maximum altitude 19:22:47 78° 72° (ENE) 705 3.8 -21.7°
Drops below altitude 10° 19:27:36 10° 159° (SSE) 2,130 6.5 -20.7°
Sets 19:29:54 0° 161° (SSE) 3,046 7.3 -20.3°
